User: anonymous   Login
Location: Unspecified
(0.0000°N, 0.0000°E)
Time: 08:33:19
(UTC+02:00)
Language:

Orbus 21S - Orbit

View from above orbital plane
View from above orbital plane
View from above satellite
View from above satellite

Ground track
Ground track

The orbit data is extracted from the following two-line orbital elements,

1 20669U 90056C   15114.16870442  .00004668  00000-0  18539-2 0  9999
2 20669 024.4180 054.0155 7135011 180.0167 355.0335 02.45467276208002
Epoch (UTC): 24 April 2015 04:02:56
Eccentricity: 0.7135011
inclination: 24.4180°
perigee height: 272 km
apogee height: 33398 km
right ascension of ascending node: 54.0155°
argument of perigee: 180.0167°
revolutions per day: 2.45467276
mean anomaly at epoch: 355.0335°
orbit number at epoch: 20800

The dashed part of the orbit path shows where the satellite is in the earth's shadow,  

DLR